Time,TemperatureF,DewpointF,PressureIn,WindDirection,WindDirectionDegrees,WindSpeedMPH,WindSpeedGustMPH,Humidity,HourlyPrecipIn,Conditions,Clouds,dailyrainin,SoftwareType,DateUTC
2013-01-25 00:03:00,5.0,0.0,30.33,South,179,0.0,3.0,80,0.00,,,0.00,,2013-01-25 05:03:00,
2013-01-25 00:12:00,5.0,0.0,30.33,South,179,0.0,3.0,80,0.00,,,0.00,,2013-01-25 05:12:00,
2013-01-25 00:22:00,5.0,0.0,30.34,NW,319,0.0,3.0,80,0.00,,,0.00,,2013-01-25 05:22:00,
2013-01-25 00:32:00,5.0,0.0,30.34,NW,319,0.0,3.0,80,0.00,,,0.00,,2013-01-25 05:32:00,
2013-01-25 00:43:00,5.0,0.0,30.34,NW,319,0.0,3.0,80,0.00,,,0.00,,2013-01-25 05:43:00,
2013-01-25 00:52:00,5.0,0.0,30.34,NW,319,0.0,3.0,80,0.00,,,0.00,,2013-01-25 05:52:00,
2013-01-25 01:02:00,5.0,0.0,30.31,SSE,162,1.0,4.0,81,0.00,,,0.00,,2013-01-25 06:02:00,
2013-01-25 01:12:00,5.0,0.0,30.31,SSE,162,1.0,4.0,81,0.00,,,0.00,,2013-01-25 06:12:00,
2013-01-25 01:22:00,4.0,-1.0,30.31,NNW,331,1.0,3.0,81,0.00,,,0.00,,2013-01-25 06:22:00,
2013-01-25 01:32:00,4.0,-1.0,30.30,South,172,0.0,1.0,80,0.00,,,0.00,,2013-01-25 06:32:00,
2013-01-25 01:42:00,4.0,-1.0,30.30,South,172,0.0,1.0,80,0.00,,,0.00,,2013-01-25 06:42:00,
2013-01-25 01:52:00,4.0,-1.0,30.28,West,278,2.0,2.0,81,0.00,,,0.00,,2013-01-25 06:52:00,
2013-01-25 02:02:00,5.0,0.0,30.27,NW,306,0.0,3.0,80,0.00,,,0.00,,2013-01-25 07:02:00,
2013-01-25 02:11:00,5.0,0.0,30.27,NW,306,0.0,3.0,80,0.00,,,0.00,,2013-01-25 07:11:00,
2013-01-25 02:22:00,5.0,0.0,30.27,NW,309,0.0,2.0,80,0.00,,,0.00,,2013-01-25 07:22:00,
2013-01-25 02:32:00,4.0,-1.0,30.28,ENE,74,1.0,7.0,80,0.00,,,0.00,,2013-01-25 07:32:00,
2013-01-25 02:42:00,4.0,-1.0,30.28,ENE,74,1.0,7.0,80,0.00,,,0.00,,2013-01-25 07:42:00,
2013-01-25 02:51:00,4.0,-1.0,30.28,ENE,74,1.0,7.0,80,0.00,,,0.00,,2013-01-25 07:51:00,
2013-01-25 03:02:00,4.0,-1.0,30.28,East,84,2.0,2.0,81,0.00,,,0.00,,2013-01-25 08:02:00,
2013-01-25 03:12:00,4.0,-1.0,30.28,East,84,2.0,2.0,81,0.00,,,0.00,,2013-01-25 08:12:00,
2013-01-25 03:22:00,4.0,-1.0,30.28,East,84,0.0,3.0,81,0.00,,,0.00,,2013-01-25 08:22:00,
2013-01-25 03:32:00,4.0,-1.0,30.28,East,84,0.0,0.0,81,0.00,,,0.00,,2013-01-25 08:32:00,
2013-01-25 03:42:00,4.0,-1.0,30.28,East,84,0.0,0.0,81,0.00,,,0.00,,2013-01-25 08:42:00,
2013-01-25 03:52:00,3.0,-1.0,30.28,East,84,0.0,0.0,82,0.00,,,0.00,,2013-01-25 08:52:00,
2013-01-25 04:02:00,4.0,0.0,30.28,East,84,0.0,0.0,83,0.00,,,0.00,,2013-01-25 09:02:00,
2013-01-25 04:11:00,4.0,0.0,30.28,East,84,0.0,0.0,83,0.00,,,0.00,,2013-01-25 09:11:00,
2013-01-25 04:21:00,4.0,0.0,30.26,East,84,0.0,0.0,83,0.00,,,0.00,,2013-01-25 09:21:00,
2013-01-25 04:32:00,4.0,0.0,30.25,East,84,0.0,0.0,83,0.00,,,0.00,,2013-01-25 09:32:00,
2013-01-25 04:42:00,4.0,0.0,30.25,East,84,0.0,0.0,83,0.00,,,0.00,,2013-01-25 09:42:00,
2013-01-25 04:52:00,4.0,0.0,30.25,East,84,0.0,0.0,82,0.00,,,0.00,,2013-01-25 09:52:00,
2013-01-25 05:02:00,4.0,0.0,30.23,East,84,0.0,0.0,83,0.00,,,0.00,,2013-01-25 10:02:00,
2013-01-25 05:12:00,4.0,0.0,30.23,East,84,0.0,0.0,83,0.00,,,0.00,,2013-01-25 10:12:00,
2013-01-25 05:22:00,4.0,0.0,30.24,East,85,0.0,2.0,83,0.00,,,0.00,,2013-01-25 10:22:00,
2013-01-25 05:32:00,4.0,0.0,30.24,East,85,0.0,2.0,83,0.00,,,0.00,,2013-01-25 10:32:00,
2013-01-25 05:42:00,4.0,0.0,30.24,East,85,0.0,2.0,83,0.00,,,0.00,,2013-01-25 10:42:00,
2013-01-25 05:51:00,4.0,0.0,30.24,East,85,0.0,2.0,83,0.00,,,0.00,,2013-01-25 10:51:00,
2013-01-25 06:22:00,4.0,0.0,30.21,East,85,0.0,1.0,82,0.00,,,0.00,,2013-01-25 11:22:00,
2013-01-25 06:33:00,5.0,1.0,30.20,East,85,0.0,0.0,82,0.00,,,0.00,,2013-01-25 11:33:00,
2013-01-25 06:42:00,5.0,1.0,30.20,East,85,0.0,0.0,82,0.00,,,0.00,,2013-01-25 11:42:00,
2013-01-25 06:52:00,5.0,1.0,30.19,SE,126,0.0,3.0,82,0.00,,,0.00,,2013-01-25 11:52:00,
2013-01-25 07:03:00,5.0,0.0,30.18,SE,126,0.0,3.0,81,0.00,,,0.00,,2013-01-25 12:03:00,
2013-01-25 07:12:00,5.0,0.0,30.18,SE,126,0.0,3.0,81,0.00,,,0.00,,2013-01-25 12:12:00,
2013-01-25 07:22:00,5.0,0.0,30.19,SE,129,1.0,3.0,81,0.00,,,0.00,,2013-01-25 12:22:00,
2013-01-25 07:32:00,5.0,0.0,30.18,East,101,0.0,3.0,81,0.00,,,0.00,,2013-01-25 12:32:00,
2013-01-25 07:42:00,5.0,0.0,30.18,East,101,0.0,3.0,81,0.00,,,0.00,,2013-01-25 12:42:00,
2013-01-25 07:53:00,5.0,1.0,30.18,SSE,150,2.0,6.0,82,0.00,,,0.00,,2013-01-25 12:53:00,
2013-01-25 08:03:00,4.0,0.0,30.16,SE,128,6.0,7.0,82,0.00,,,0.00,,2013-01-25 13:03:00,
2013-01-25 08:12:00,4.0,0.0,30.16,SE,128,6.0,7.0,82,0.00,,,0.00,,2013-01-25 13:12:00,
2013-01-25 08:22:00,4.0,0.0,30.14,SSE,163,2.0,10.0,83,0.00,,,0.00,,2013-01-25 13:22:00,
2013-01-25 08:33:00,5.0,1.0,30.12,SE,145,3.0,11.0,82,0.00,,,0.00,,2013-01-25 13:33:00,
2013-01-25 08:43:00,5.0,1.0,30.12,SE,145,3.0,11.0,82,0.00,,,0.00,,2013-01-25 13:43:00,
2013-01-25 08:52:00,5.0,1.0,30.11,East,96,6.0,9.0,83,0.00,,,0.00,,2013-01-25 13:52:00,
2013-01-25 09:03:00,5.0,1.0,30.11,East,96,6.0,9.0,83,0.00,,,0.00,,2013-01-25 14:03:00,
2013-01-25 09:12:00,5.0,1.0,30.11,East,96,6.0,9.0,83,0.00,,,0.00,,2013-01-25 14:12:00,
2013-01-25 09:23:00,5.0,1.0,30.11,East,96,6.0,9.0,83,0.00,,,0.00,,2013-01-25 14:23:00,
2013-01-25 09:33:00,6.0,1.0,30.11,SE,136,7.0,10.0,79,0.00,,,0.00,,2013-01-25 14:33:00,
2013-01-25 09:42:00,6.0,1.0,30.11,SE,136,7.0,10.0,79,0.00,,,0.00,,2013-01-25 14:42:00,
2013-01-25 09:53:00,7.0,2.0,30.11,SE,134,4.0,10.0,78,0.00,,,0.00,,2013-01-25 14:53:00,
2013-01-25 10:03:00,7.0,2.0,30.11,SE,131,4.0,10.0,78,0.00,,,0.00,,2013-01-25 15:03:00,
2013-01-25 10:13:00,7.0,2.0,30.11,SE,131,4.0,10.0,78,0.00,,,0.00,,2013-01-25 15:13:00,
2013-01-25 10:22:00,7.0,2.0,30.09,SE,140,3.0,13.0,81,0.00,,,0.00,,2013-01-25 15:22:00,
2013-01-25 10:33:00,7.0,2.0,30.09,SE,140,3.0,13.0,81,0.00,,,0.00,,2013-01-25 15:33:00,
2013-01-25 10:42:00,7.0,2.0,30.09,SE,140,3.0,13.0,81,0.00,,,0.00,,2013-01-25 15:42:00,
2013-01-25 10:52:00,7.0,2.0,30.09,SE,140,3.0,13.0,81,0.00,,,0.00,,2013-01-25 15:52:00,
2013-01-25 11:03:00,8.0,5.0,30.09,East,96,4.0,9.0,88,0.00,,,0.00,,2013-01-25 16:03:00,
2013-01-25 11:12:00,8.0,5.0,30.09,East,96,4.0,9.0,88,0.00,,,0.00,,2013-01-25 16:12:00,
2013-01-25 11:23:00,8.0,5.0,30.06,ENE,70,6.0,8.0,89,0.00,,,0.00,,2013-01-25 16:23:00,
2013-01-25 11:33:00,9.0,7.0,30.03,East,101,6.0,11.0,90,0.00,,,0.00,,2013-01-25 16:33:00,
2013-01-25 11:43:00,9.0,7.0,30.03,East,101,6.0,11.0,90,0.00,,,0.00,,2013-01-25 16:43:00,
2013-01-25 11:52:00,9.0,7.0,30.01,East,91,3.0,10.0,90,0.00,,,0.00,,2013-01-25 16:52:00,
2013-01-25 12:03:00,9.0,7.0,30.00,SE,134,3.0,8.0,90,0.00,,,0.00,,2013-01-25 17:03:00,
2013-01-25 12:12:00,9.0,7.0,30.00,SE,134,3.0,8.0,90,0.00,,,0.00,,2013-01-25 17:12:00,
2013-01-25 12:22:00,9.0,7.0,29.99,ESE,105,6.0,10.0,91,0.00,,,0.00,,2013-01-25 17:22:00,
2013-01-25 12:33:00,9.0,7.0,29.98,SE,137,7.0,13.0,90,0.00,,,0.00,,2013-01-25 17:33:00,
2013-01-25 12:43:00,9.0,7.0,29.98,SE,137,7.0,13.0,90,0.00,,,0.00,,2013-01-25 17:43:00,
2013-01-25 12:53:00,9.0,7.0,29.96,East,87,5.0,10.0,91,0.00,,,0.00,,2013-01-25 17:53:00,
2013-01-25 13:03:00,10.0,8.0,29.95,ESE,107,5.0,11.0,91,0.00,,,0.00,,2013-01-25 18:03:00,
2013-01-25 13:12:00,10.0,8.0,29.95,ESE,107,5.0,11.0,91,0.00,,,0.00,,2013-01-25 18:12:00,
2013-01-25 13:23:00,10.0,8.0,29.95,ENE,69,12.0,12.0,91,0.00,,,0.00,,2013-01-25 18:23:00,
2013-01-25 13:33:00,10.0,8.0,29.94,ESE,117,4.0,12.0,91,0.00,,,0.00,,2013-01-25 18:33:00,
2013-01-25 13:42:00,10.0,8.0,29.94,ESE,117,4.0,12.0,91,0.00,,,0.00,,2013-01-25 18:42:00,
2013-01-25 13:52:00,11.0,9.0,29.94,ENE,76,5.0,10.0,91,0.00,,,0.00,,2013-01-25 18:52:00,
2013-01-25 14:03:00,11.0,9.0,29.93,SE,132,2.0,7.0,92,0.00,,,0.00,,2013-01-25 19:03:00,
2013-01-25 14:12:00,11.0,9.0,29.93,SE,132,2.0,7.0,92,0.00,,,0.00,,2013-01-25 19:12:00,
2013-01-25 14:23:00,11.0,9.0,29.91,ENE,60,1.0,7.0,92,0.00,,,0.00,,2013-01-25 19:23:00,
2013-01-25 14:33:00,11.0,9.0,29.91,SE,138,6.0,7.0,92,0.00,,,0.00,,2013-01-25 19:33:00,
2013-01-25 14:42:00,11.0,9.0,29.91,SE,138,6.0,7.0,92,0.00,,,0.00,,2013-01-25 19:42:00,
2013-01-25 14:52:00,11.0,9.0,29.91,East,101,2.0,8.0,92,0.00,,,0.00,,2013-01-25 19:52:00,
2013-01-25 15:03:00,12.0,10.0,29.90,East,86,3.0,7.0,92,0.00,,,0.00,,2013-01-25 20:03:00,
2013-01-25 15:12:00,12.0,10.0,29.90,East,86,3.0,7.0,92,0.00,,,0.00,,2013-01-25 20:12:00,
2013-01-25 15:23:00,12.0,10.0,29.90,East,86,3.0,7.0,92,0.00,,,0.00,,2013-01-25 20:23:00,
2013-01-25 15:33:00,13.0,11.0,29.89,East,88,0.0,6.0,92,0.00,,,0.00,,2013-01-25 20:33:00,
2013-01-25 15:42:00,13.0,11.0,29.89,East,88,0.0,6.0,92,0.00,,,0.00,,2013-01-25 20:42:00,
2013-01-25 15:53:00,13.0,11.0,29.89,ENE,71,0.0,6.0,92,0.00,,,0.00,,2013-01-25 20:53:00,
2013-01-25 16:02:00,13.0,11.0,29.88,ESE,103,0.0,6.0,92,0.00,,,0.00,,2013-01-25 21:02:00,
2013-01-25 16:12:00,13.0,11.0,29.88,ESE,103,0.0,6.0,92,0.00,,,0.00,,2013-01-25 21:12:00,
2013-01-25 16:23:00,13.0,11.0,29.88,ENE,74,2.0,4.0,92,0.00,,,0.00,,2013-01-25 21:23:00,
2013-01-25 16:33:00,13.0,11.0,29.88,East,83,3.0,5.0,92,0.00,,,0.00,,2013-01-25 21:33:00,
2013-01-25 16:42:00,13.0,11.0,29.88,East,83,3.0,5.0,92,0.00,,,0.00,,2013-01-25 21:42:00,
2013-01-25 16:52:00,13.0,11.0,29.88,East,83,3.0,5.0,92,0.00,,,0.00,,2013-01-25 21:52:00,
2013-01-25 17:03:00,13.0,11.0,29.87,East,89,3.0,6.0,92,0.00,,,0.00,,2013-01-25 22:03:00,
2013-01-25 17:12:00,13.0,11.0,29.87,East,89,3.0,6.0,92,0.00,,,0.00,,2013-01-25 22:12:00,
2013-01-25 17:23:00,13.0,11.0,29.87,East,89,3.0,6.0,92,0.00,,,0.00,,2013-01-25 22:23:00,
2013-01-25 17:33:00,13.0,11.0,29.88,NE,44,0.0,2.0,92,0.00,,,0.00,,2013-01-25 22:33:00,
2013-01-25 17:42:00,13.0,11.0,29.88,NE,44,0.0,2.0,92,0.00,,,0.00,,2013-01-25 22:42:00,
2013-01-25 17:53:00,13.0,11.0,29.88,NE,44,0.0,2.0,92,0.00,,,0.00,,2013-01-25 22:53:00,
2013-01-25 18:02:00,13.0,11.0,29.88,ENE,75,0.0,1.0,93,0.00,,,0.00,,2013-01-25 23:02:00,
2013-01-25 18:12:00,13.0,11.0,29.88,ENE,75,0.0,1.0,93,0.00,,,0.00,,2013-01-25 23:12:00,
2013-01-25 18:22:00,13.0,11.0,29.88,ENE,75,0.0,0.0,93,0.00,,,0.00,,2013-01-25 23:22:00,
2013-01-25 18:32:00,13.0,11.0,29.88,ENE,75,0.0,0.0,93,0.00,,,0.00,,2013-01-25 23:32:00,
2013-01-25 18:42:00,13.0,11.0,29.88,ENE,75,0.0,0.0,93,0.00,,,0.00,,2013-01-25 23:42:00,
2013-01-25 18:52:00,13.0,11.0,29.88,ENE,75,0.0,0.0,93,0.00,,,0.00,,2013-01-25 23:52:00,
2013-01-25 19:02:00,13.0,11.0,29.88,East,84,0.0,2.0,93,0.00,,,0.00,,2013-01-26 00:02:00,
2013-01-25 19:12:00,13.0,11.0,29.88,East,84,0.0,2.0,93,0.00,,,0.00,,2013-01-26 00:12:00,
2013-01-25 19:22:00,13.0,11.0,29.87,ENE,78,0.0,2.0,93,0.00,,,0.00,,2013-01-26 00:22:00,
2013-01-25 19:32:00,14.0,13.0,29.88,WSW,252,6.0,7.0,94,0.00,,,0.00,,2013-01-26 00:32:00,
2013-01-25 19:42:00,14.0,13.0,29.88,WSW,252,6.0,7.0,94,0.00,,,0.00,,2013-01-26 00:42:00,
2013-01-25 19:53:00,16.0,15.0,29.87,West,269,2.0,13.0,94,0.00,,,0.00,,2013-01-26 00:53:00,
2013-01-25 20:02:00,16.0,15.0,29.88,West,265,3.0,15.0,94,0.00,,,0.00,,2013-01-26 01:02:00,
2013-01-25 20:12:00,16.0,15.0,29.88,West,265,3.0,15.0,94,0.00,,,0.00,,2013-01-26 01:12:00,
2013-01-25 20:22:00,16.0,15.0,29.88,NW,305,5.0,16.0,94,0.00,,,0.00,,2013-01-26 01:22:00,
2013-01-25 20:32:00,16.0,15.0,29.88,West,259,1.0,10.0,94,0.00,,,0.00,,2013-01-26 01:32:00,
2013-01-25 20:42:00,16.0,15.0,29.88,West,259,1.0,10.0,94,0.00,,,0.00,,2013-01-26 01:42:00,
2013-01-25 20:52:00,16.0,15.0,29.88,West,259,1.0,10.0,94,0.00,,,0.00,,2013-01-26 01:52:00,
2013-01-25 21:02:00,16.0,15.0,29.88,West,272,1.0,11.0,94,0.00,,,0.00,,2013-01-26 02:02:00,
2013-01-25 21:12:00,16.0,15.0,29.88,West,272,1.0,11.0,94,0.00,,,0.00,,2013-01-26 02:12:00,
2013-01-25 21:22:00,16.0,15.0,29.88,NNW,338,1.0,12.0,94,0.00,,,0.00,,2013-01-26 02:22:00,
2013-01-25 21:32:00,16.0,15.0,29.88,West,269,9.0,12.0,94,0.00,,,0.00,,2013-01-26 02:32:00,
2013-01-25 21:42:00,16.0,15.0,29.88,West,269,9.0,12.0,94,0.00,,,0.00,,2013-01-26 02:42:00,
2013-01-25 21:52:00,16.0,15.0,29.88,West,269,9.0,12.0,94,0.00,,,0.00,,2013-01-26 02:52:00,
2013-01-25 22:02:00,15.0,14.0,29.88,WNW,303,7.0,13.0,94,0.00,,,0.00,,2013-01-26 03:02:00,
2013-01-25 22:12:00,15.0,14.0,29.88,WNW,303,7.0,13.0,94,0.00,,,0.00,,2013-01-26 03:12:00,
2013-01-25 22:22:00,15.0,14.0,29.89,NW,305,8.0,17.0,94,0.00,,,0.00,,2013-01-26 03:22:00,
2013-01-25 22:32:00,15.0,14.0,29.88,NW,310,11.0,15.0,94,0.00,,,0.00,,2013-01-26 03:32:00,
2013-01-25 22:43:00,15.0,14.0,29.88,NW,310,11.0,15.0,94,0.00,,,0.00,,2013-01-26 03:43:00,
2013-01-25 22:52:00,15.0,14.0,29.90,WNW,283,5.0,21.0,95,0.00,,,0.00,,2013-01-26 03:52:00,
2013-01-25 23:02:00,15.0,14.0,29.91,WNW,294,12.0,17.0,95,0.00,,,0.00,,2013-01-26 04:02:00,
2013-01-25 23:12:00,15.0,14.0,29.91,WNW,294,12.0,17.0,95,0.00,,,0.00,,2013-01-26 04:12:00,
2013-01-25 23:21:00,15.0,14.0,29.91,NW,320,7.0,19.0,95,0.00,,,0.00,,2013-01-26 04:21:00,
2013-01-25 23:32:00,15.0,14.0,29.92,NW,315,7.0,16.0,95,0.00,,,0.00,,2013-01-26 04:32:00,
2013-01-25 23:42:00,15.0,14.0,29.92,NW,315,7.0,16.0,95,0.00,,,0.00,,2013-01-26 04:42:00,
2013-01-25 23:52:00,15.0,14.0,29.92,NW,315,7.0,16.0,95,0.00,,,0.00,,2013-01-26 04:52:00,